Location: Rock Island IL
(41.5000°N, 90.5500°W)
Time: 14:22:59
(UTC-05:00)

Daily predictions for brighter satellites

Satellite Brightness Start Highest point End
(mag) Time Altitude Azimuth Time Altitude Azimuth Time Altitude Azimuth
ERS-2 2.1 20:51:18 10° SSE 20:54:59 88° E 20:58:42 10° NNW
Cosmos 1812 4.0 20:52:12 10° SSW 20:55:53 44° W 20:59:36 10° N
BREEZE-M DEB (TANK) 1.6 20:55:00 10° WNW 20:58:41 65° SW 21:00:41 10° SE
Tsikada Rocket 4.1 20:53:25 10° N 20:59:50 71° E 21:06:13 10° SSE
Okean 1 3.4 20:55:52 10° S 20:59:52 65° E 21:03:54 10° NNE
Cosmos 1743 3.5 20:57:13 10° N 21:00:45 34° ENE 21:04:14 10° SE
Cosmos 1725 Rocket 4.0 20:54:40 10° S 21:00:50 82° E 21:07:04 10° N
Spot 2 Rocket 3.5 21:01:18 10° SSE 21:06:19 75° ENE 21:11:22 10° N
Cosmos 1939 Rocket 3.6 21:02:55 10° S 21:06:57 56° W 21:11:03 10° NNW
Shenzhou-11 Module 2.3 21:04:24 10° W 21:07:21 65° N 21:10:19 10° E
Lacrosse 5 rocket 3.7 21:04:28 10° NNW 21:07:29 18° NNE 21:10:23 10° ENE
Cosmos 468 Rocket 4.1 21:05:20 10° S 21:10:29 58° ESE 21:15:38 10° NNE
Meteor 1-18 Rocket 4.4 21:05:04 10° S 21:10:54 89° W 21:16:52 10° N
Cosmos 1937 Rocket 4.2 21:06:36 10° N 21:11:25 39° ENE 21:15:56 11° SE
DNEPR-1 R/B 4.0 21:07:25 10° SW 21:11:37 70° NW 21:16:24 10° NNE
USA 238 DEB 4.4 21:05:25 10° SW 21:12:11 61° NW 21:19:06 10° NNE
USA 238 4.4 21:05:32 10° SW 21:12:17 61° NW 21:19:12 10° NNE
Cosmos 1378 Rocket 3.7 21:10:38 10° S 21:14:57 79° W 21:19:17 10° N
BREEZE-M R/B 2.9 21:11:17 10° WSW 21:16:06 69° NNW 21:18:54 10° NE
Meteor 2-4 Rocket 4.4 21:11:22 10° SSE 21:16:09 33° E 21:21:03 10° NNE
SAR-Lupe-3 4.5 21:12:58 10° NNE 21:16:34 71° ESE 21:20:07 10° S
Cosmos 1975 Rocket 3.3 21:13:20 10° SSE 21:17:30 50° E 21:21:41 10° NNE
Cosmos 1763 Rocket 3.9 21:13:25 10° S 21:18:23 42° ESE 21:23:20 10° NNE
Okean 1 Rocket 3.3 21:14:07 10° NNW 21:18:28 73° W 21:22:46 10° S
Cosmos 841 Rocket 4.3 21:18:31 10° SSE 21:23:06 32° E 21:27:44 10° NE
SL-08 RB Rocket 4.3 21:27:06 14° SE 21:30:36 41° ENE 21:34:54 10° N
Cosmos 1544 Rocket 4.3 21:30:12 10° N 21:34:21 37° ENE 21:37:13 18° SE
Cosmos 1340 Rocket 3.7 21:31:56 15° SSE 21:34:38 32° E 21:38:17 10° NNE
Helios 1A 4.5 21:32:26 14° ESE 21:34:47 22° ENE 21:38:02 10° NNE
Cosmos 2322 Rocket 2.2 21:30:28 10° NNW 21:36:05 73° ENE 21:40:37 16° SSE
ARGOS 3.2 21:34:10 13° SSE 21:38:59 70° ENE 21:44:22 10° N
Cosmos 2233 Rocket 4.1 21:34:47 10° S 21:40:55 78° W 21:47:09 10° N
USA 234 3.3 21:35:06 10° NE 21:41:42 85° NW 21:48:17 10° SW
Resurs 01 Rocket 3.2 21:37:52 10° SSW 21:41:50 32° W 21:45:49 10° NNW
SPOT 5 3.9 21:40:13 17° ESE 21:42:40 27° ENE 21:46:29 10° N
NOSS 3-2 (A) 4.2 21:38:14 10° SW 21:44:02 58° NW 21:50:32 10° NNE
SL-16 R/B 2.2 21:39:06 10° NNW 21:44:49 90° SSW 21:49:18 17° SSE
Cosmos 2084 3.3 21:40:35 10° SW 21:44:55 88° ESE 21:49:03 10° NE
Meteor 1-13 Rocket 4.3 21:40:41 10° S 21:46:32 73° E 21:52:29 10° NNE
SJ 16-02 2.9 21:44:31 10° N 21:48:02 22° ENE 21:50:11 16° E
ATLAS CENTAUR R/B 4.3 21:41:36 10° SW 21:48:06 90° NW 22:08:48 10° NE
NOSS 3-2 (C) 3.7 21:43:28 10° SW 21:49:21 72° NW 21:55:56 10° NNE
Cosmos 1536 Rocket 4.3 21:48:41 21° SE 21:50:53 35° E 21:54:57 10° NNE
SPOT 1/Viking Rocket 4.4 21:47:58 19° ESE 21:51:01 35° ENE 21:55:40 10° N
ERS-1 Rocket 3.2 21:47:49 19° SE 21:51:16 57° ENE 21:56:11 10° N
Terra 3.5 21:50:46 14° E 21:53:01 19° ENE 21:56:19 10° NNE
Cosmos 1356 4.0 21:52:00 27° SE 21:53:19 39° E 21:56:35 10° NNE
Cosmos 1898 Rocket 3.9 21:48:49 10° NNW 21:54:04 63° WSW 21:58:31 14° S
H-2A R/B 1.9 21:50:59 18° SSE 21:54:36 76° ENE 21:59:39 10° N
Cosmos 1814 Rocket 4.0 21:53:54 10° SSW 21:59:09 89° WNW 22:04:30 10° NNE
ISS -1.3 22:02:03 10° WNW 22:04:47 23° NNW 22:07:29 10° NE
Atlas Centaur 2 3.4 22:05:03 10° SSW 22:05:16 10° SSW 22:05:16 10° SSW
ATLAS CENTAUR R/B 4.2 22:04:43 10° W 22:06:39 12° WSW 22:08:36 10° SW
DMSP B5D2-2 4.2 22:02:24 10° NNE 22:07:36 54° E 22:10:55 22° S
Helios 1B rocket 3.2 22:04:11 10° NNE 22:07:55 31° E 22:08:40 29° ESE
Abrixas rocket 3.3 22:05:31 10° W 22:08:38 44° NNW 22:11:45 10° NE
Cosmos 1242 Rocket 4.1 22:05:24 10° NNW 22:08:42 32° W 22:11:36 12° SSW
MetOp-B 4.2 22:06:01 18° S 22:10:00 75° WSW 22:15:23 10° NNW
CENTAUR R/B 2.4 22:06:37 10° SSW 22:12:30 79° ESE 22:19:20 10° NE
Cosmos 990 Rocket 4.4 22:08:00 10° NNW 22:13:08 58° WSW 22:16:39 20° S
Tiangong 2 1.2 22:17:50 10° W 22:20:59 70° N 22:22:08 35° ENE
CARTOSAT-1 4.3 22:22:27 31° ESE 22:23:39 38° ENE 22:27:39 10° N
Cosmos 1513 Rocket 4.4 22:19:51 16° S 22:24:46 88° E 22:30:58 10° N
Aureole 2 Rocket 2.1 22:22:27 10° NNW 22:25:21 58° WSW 22:25:34 56° SW
Cosmos 2360 Rocket 2.1 22:20:51 10° NNW 22:26:32 82° ENE 22:29:12 33° SSE
Cosmos 2034 Rocket 3.9 22:22:29 22° S 22:26:35 74° E 22:32:45 10° N
Cosmos 2150 Rocket 4.4 22:23:39 10° NNW 22:28:58 61° WSW 22:31:49 27° S
Cosmos 1464 Rocket 4.2 22:24:55 12° SSW 22:30:49 76° W 22:37:14 10° N
Cosmos 2219 Rocket 3.5 22:26:18 10° N 22:31:04 28° NE 22:33:35 20° E
Cosmos 292 Rocket 4.2 22:27:45 10° SSW 22:32:28 61° WNW 22:37:11 10° NNE
CZ-2C R/B 3.9 22:28:19 10° NE 22:32:52 25° E 22:33:28 24° ESE
USA 245 3.7 22:31:45 35° SSW 22:32:53 53° W 22:36:59 10° NNW
Cosmos 1025 Rocket 3.2 22:38:39 47° SE 22:39:20 53° E 22:43:37 10° NNE
Shenzhou-11 Module 3.0 22:40:29 10° W 22:42:34 39° W 22:42:34 39° W
Meteor 1-23 Rocket 4.4 22:39:59 19° SSW 22:44:03 71° W 22:49:38 10° N
Cosmos 1455 Rocket 4.4 22:40:55 10° NNW 22:44:53 35° W 22:47:16 20° SW
Lacrosse 5 rocket 1.3 22:43:06 10° NW 22:47:24 73° NE 22:48:08 57° ESE
Cosmos 2333 Rocket 3.3 22:44:16 10° N 22:49:27 34° ENE 22:51:37 26° E
COSMOS 2428 3.0 22:47:10 10° NNW 22:52:46 56° ENE 22:54:36 39° ESE
Cosmos 540 Rocket 3.8 22:50:48 17° SSW 22:54:43 65° WNW 22:59:53 10° NNE
Cosmos 1634 Rocket 4.3 22:52:51 38° SE 22:54:47 50° E 23:00:52 10° NNE
CZ-2C R/B 3.1 23:06:31 50° SE 23:07:53 73° ENE 23:13:28 10° N
Helios 1A 4.3 23:09:04 26° SW 23:10:10 30° W 23:13:53 10° NW
Landsat 7 4.4 23:10:21 38° SW 23:11:39 49° W 23:16:16 10° NNW
CZ-4C R/B 3.0 23:05:21 10° NNW 23:12:34 71° NE 23:16:04 37° SE
Cosmos 2297 Rocket 3.7 23:14:58 21° E 23:14:58 21° E 23:18:20 10° NE
Cosmos 1892 Rocket 4.2 23:17:14 42° ENE 23:17:14 42° ENE 23:20:50 10° NNE
Cosmos 2322 4.1 23:11:19 10° NNW 23:16:54 54° WSW 23:18:28 41° SSW
Cosmos 2227 Rocket 3.4 23:18:00 26° E 23:18:00 26° E 23:21:54 10° NE
Cosmos 372 Rocket 4.3 23:13:29 10° NNW 23:18:30 55° WSW 23:19:32 46° SW
Cosmos 2322 Rocket 4.4 23:16:24 10° WNW 23:19:25 15° W 23:22:26 10° SW
Mayak 1.2 23:17:25 10° ENE 23:18:15 12° ENE 23:18:15 12° ENE
SPOT 5 4.1 23:19:27 24° WSW 23:20:40 28° W 23:24:35 10° NW
Okean 1-7 Rocket 3.5 23:22:04 79° S 23:22:20 88° ESE 23:26:56 10° N
Cosmos 2237 Rocket 3.2 23:18:47 10° N 23:24:01 36° ENE 23:25:38 30° E
SJ 16-02 2.4 23:22:41 10° NW 23:26:41 34° W 23:27:11 33° WSW
Nimbus 7 Rocket 4.4 23:21:16 10° NNE 23:27:09 77° WNW 23:29:27 39° SSW
Cosmos 1066 Rocket 4.3 23:25:46 42° SW 23:27:30 66° WNW 23:32:56 10° N
Terra 2.3 23:29:39 44° SW 23:30:23 48° W 23:35:00 10° NNW
Meteor 1-21 4.3 23:32:25 54° ESE 23:32:52 56° E 23:38:21 10° NNE
H-2A R/B 4.4 23:32:51 10° WSW 23:34:38 12° W 23:36:24 10° WNW
Cosmos 1538 Rocket 4.5 23:35:40 45° E 23:35:40 45° E 23:40:13 10° NNE
Cosmos 2228 3.3 23:33:14 10° N 23:37:05 59° NE 23:37:05 59° NE
Cosmos 1726 Rocket 3.5 23:33:40 10° N 23:37:53 80° NNE 23:37:53 80° NNE
Cosmos 1092 Rocket 4.3 23:31:56 10° NNW 23:38:09 59° W 23:40:11 41° SSW
Cosmos 1766 3.7 23:36:17 10° N 23:39:39 62° N 23:39:39 62° N
Meteor 1-22 Rocket 3.9 23:35:31 10° N 23:40:54 84° W 23:41:29 71° S
ISS -0.6 23:40:19 10° NW 23:42:08 14° N 23:43:57 10° NNE
Cosmos 2219 3.3 23:44:48 46° SW 23:46:32 74° WNW 23:52:18 10° NNE
COSMOS 2455 3.3 23:47:33 44° ESE 23:47:33 44° ESE 23:52:54 10° NE
ADEOS Rocket 4.0 23:45:14 10° NE 23:49:25 26° E 23:49:25 26° E
Cosmos 2058 Rocket 3.2 23:45:26 10° N 23:49:36 73° NNE 23:49:36 73° NNE
Spot 4 3.8 23:53:35 76° WSW 23:53:37 76° WSW 23:58:29 10° NNW
